Gulfport, MS

9:42 AM CDT on July 20, 2017 (GMT -0500)
Gulfport-Biloxi Regional

Weather History for KGPT - October, 2012

Change the Weather History Date:

Thursday, October 25, 2012

  Actual Average Record
Temperature  
Mean Temperature 70 °F -  
Max Temperature 80 °F 77 °F 88 °F (2004)
Min Temperature 60 °F 55 °F 37 °F (1999)
Cooling Degree Days 5    
Growing Degree Days 20 (Base 50)    
Moisture  
Dew Point 66 °F    
Average Humidity 88    
Maximum Humidity 100    
Minimum Humidity 69    
Precipitation  
Precipitation 0.01 in - - ()
Sea Level Pressure  
Sea Level Pressure 29.96 in    
Wind  
Wind Speed 2 mph (ESE)    
Max Wind Speed 13 mph    
Max Gust Speed -    
Visibility 8 miles    
Events      
Averages and records for this station are not official NWS values.
T = Trace of Precipitation, MM = Missing Value Source: NWS Daily Summary

Daily Weather History Graph

Daily Weather History Graph

Search for Another Location

Airport or City:

Trip Planner

Search our weather history database for the weather conditions in past years. The results will help you decide how hot, cold, wet, or windy it might be!

Date:

Astronomy

Oct. 25, 2012 Rise Set
Actual Time 7:05 AM CDT 6:14 PM CDT
Civil Twilight 6:41 AM CDT 6:38 PM CDT
Nautical Twilight 6:13 AM CDT 7:07 PM CDT
Astronomical Twilight 5:45 AM CDT 7:35 PM CDT
Moon 3:47 PM CDT (10/25) 3:17 AM CDT (10/25)
Length of Visible Light 11h 57m
Length of Day
11h 08m
Waxing Gibbous, 84% of the Moon is Illuminated
Oct 25
Waxing Gibbous
Oct 29
Full
Nov 6
Last Quarter
Nov 13
New
Nov 20
First Quarter

Hourly Weather History & Observations

Time (CDT) Temp. Heat Index Dew Point Humidity Pressure Visibility Wind Dir Wind Speed Gust Speed Precip Events Conditions
12:53 AM 64.9 °F - 64.0 °F 97% 29.99 in 7.0 mi Calm Calm - N/A   Clear
1:53 AM 64.9 °F - 64.0 °F 97% 29.97 in 8.0 mi Calm Calm - N/A   Clear
2:53 AM 64.0 °F - 63.0 °F 96% 29.96 in 8.0 mi Calm Calm - N/A   Clear
3:53 AM 63.0 °F - 62.1 °F 97% 29.95 in 6.0 mi Calm Calm - N/A   Clear
4:53 AM 62.1 °F - 61.0 °F 96% 29.96 in 5.0 mi Calm Calm - 0.01 in   Clear
5:21 AM 60.8 °F - 60.8 °F 100% 29.97 in 1.8 mi Calm Calm - N/A   Clear
5:32 AM 60.8 °F - 60.8 °F 100% 29.97 in 3.0 mi Calm Calm - N/A   Clear
5:53 AM 61.0 °F - 60.1 °F 97% 29.97 in 5.0 mi Calm Calm - N/A   Clear
6:53 AM 61.0 °F - 60.1 °F 97% 29.97 in 9.0 mi Calm Calm - N/A   Clear
7:53 AM 63.0 °F - 62.1 °F 97% 29.98 in 9.0 mi Calm Calm - N/A   Clear
8:53 AM 68.0 °F - 63.0 °F 84% 29.98 in 10.0 mi East 6.9 mph - N/A   Clear
9:53 AM 73.9 °F - 64.0 °F 71% 30.01 in 10.0 mi ENE 3.5 mph - N/A   Clear
10:53 AM 75.9 °F - 66.9 °F 74% 30.01 in 10.0 mi ENE 4.6 mph - N/A   Clear
11:53 AM 78.8 °F - 69.8 °F 74% 29.99 in 10.0 mi ESE 11.5 mph - N/A   Scattered Clouds
12:53 PM 80.1 °F 82.9 °F 69.1 °F 69% 29.97 in 10.0 mi SE 12.7 mph - N/A   Scattered Clouds
1:53 PM 80.1 °F 82.9 °F 69.1 °F 69% 29.95 in 10.0 mi SE 11.5 mph - N/A   Scattered Clouds
2:53 PM 79.0 °F - 70.0 °F 74% 29.94 in 10.0 mi SSE 11.5 mph - N/A   Scattered Clouds
3:53 PM 78.1 °F - 69.1 °F 74% 29.93 in 10.0 mi SE 11.5 mph - N/A   Partly Cloudy
4:53 PM 77.0 °F - 70.0 °F 79% 29.93 in 10.0 mi SE 10.4 mph - N/A   Partly Cloudy
5:53 PM 75.9 °F - 70.0 °F 82% 29.94 in 10.0 mi SSE 8.1 mph - N/A   Partly Cloudy
6:53 PM 75.2 °F - 71.6 °F 89% 29.95 in 10.0 mi SSE 4.6 mph - N/A   Partly Cloudy
8:53 PM 73.9 °F - 71.1 °F 91% 29.96 in 10.0 mi Calm Calm - N/A   Overcast
9:53 PM 73.9 °F - 70.0 °F 87% 29.96 in 10.0 mi East 3.5 mph - N/A   Overcast
10:53 PM 72.0 °F - 69.1 °F 91% 29.96 in 10.0 mi Calm Calm - N/A   Partly Cloudy
11:39 PM 68.0 °F - 66.2 °F 94% 29.96 in 2.0 mi Calm Calm - N/A   Clear
11:48 PM 69.8 °F - 68.0 °F 94% 29.95 in 5.0 mi Calm Calm - N/A   Clear
11:53 PM 69.1 °F - 68.0 °F 96% 29.96 in 5.0 mi Calm Calm - N/A   Clear